SWR3HC LEPA-LSZH

Flight info

Callsign SWR3HC
Flight time 1h 35m
Altitude 34000
Route MEROS DCT LAPIT DCT CHELY DCT LUMAS DCT MAXIR DCT LUSOL DCT BODRU DCT OKTET DCT IRMAR DCT KINES DCT VANAS DCT MOBLO DCT LAMUR DCT KORED N871 BERSU
Aircraft A320/M-SDE3FGHIRWY/LB1

Departure

Time 2026-05-05 18:14
Airport Palma de Mallorca Airport (LEPA)

Arrival

Time 2026-05-05 19:49
Airport Zürich Airport (LSZH)
Time Latitude Longitude Altitude Speed Heading
2026-05-05 17:45 39.54996 2.73446 36 ft 0 kts 162°
2026-05-05 18:03 39.55016 2.73437 35 ft 4 kts 157°
2026-05-05 18:03 39.55037 2.73421 34 ft 4 kts 107°
2026-05-05 18:04 39.55038 2.73409 32 ft 0 kts 57°
2026-05-05 18:08 39.55039 2.73410 33 ft 2 kts 57°
2026-05-05 18:08 39.55070 2.73476 36 ft 15 kts 60°
2026-05-05 18:09 39.55149 2.73651 35 ft 29 kts 59°
2026-05-05 18:09 39.55175 2.73739 36 ft 7 kts 118°
2026-05-05 18:09 39.55163 2.73780 36 ft 5 kts 72°
2026-05-05 18:09 39.55200 2.73832 36 ft 6 kts 347°
2026-05-05 18:10 39.55265 2.73781 36 ft 22 kts 327°
2026-05-05 18:10 39.55410 2.73666 35 ft 26 kts 328°
2026-05-05 18:10 39.55571 2.73537 29 ft 24 kts 329°
2026-05-05 18:10 39.55645 2.73485 26 ft 7 kts 343°
2026-05-05 18:11 39.55662 2.73518 26 ft 8 kts 60°
2026-05-05 18:11 39.55729 2.73659 27 ft 26 kts 58°
2026-05-05 18:11 39.55828 2.73868 24 ft 28 kts 58°
2026-05-05 18:11 39.55936 2.74095 20 ft 30 kts 59°
2026-05-05 18:12 39.56040 2.74318 19 ft 29 kts 59°
2026-05-05 18:12 39.56124 2.74479 16 ft 9 kts 48°
2026-05-05 18:12 39.56152 2.74498 16 ft 4 kts 10°
2026-05-05 18:12 39.56228 2.74450 16 ft 23 kts 312°
2026-05-05 18:13 39.56236 2.74274 17 ft 24 kts 239°
2026-05-05 18:13 39.56081 2.73948 22 ft 72 kts 238°
2026-05-05 18:13 39.55711 2.73170 26 ft 129 kts 238°
2026-05-05 18:13 39.55163 2.72022 196 ft 157 kts 236°
2026-05-05 18:14 39.54604 2.70876 938 ft 151 kts 237°
2026-05-05 18:14 39.54047 2.69691 1545 ft 156 kts 238°
2026-05-05 18:14 39.53468 2.68448 1976 ft 172 kts 239°
2026-05-05 18:14 39.52808 2.67034 2291 ft 195 kts 240°
2026-05-05 18:15 39.52067 2.65462 2708 ft 209 kts 240°
2026-05-05 18:15 39.51298 2.63838 3408 ft 211 kts 240°
2026-05-05 18:15 39.50525 2.62224 4198 ft 213 kts 238°
2026-05-05 18:15 39.49390 2.60875 4604 ft 239 kts 208°
2026-05-05 18:16 39.47665 2.60553 5027 ft 269 kts 172°
2026-05-05 18:16 39.45878 2.61436 5764 ft 282 kts 150°
2026-05-05 18:16 39.44479 2.63258 6549 ft 293 kts 121°
2026-05-05 18:16 39.43885 2.65781 7324 ft 300 kts 94°
2026-05-05 18:17 39.43815 2.68496 8145 ft 303 kts 92°
2026-05-05 18:17 39.43777 2.71231 8953 ft 307 kts 92°
2026-05-05 18:17 39.43744 2.74022 9757 ft 311 kts 92°
2026-05-05 18:17 39.43707 2.76860 10299 ft 325 kts 93°
2026-05-05 18:18 39.43658 2.79885 10517 ft 348 kts 93°
2026-05-05 18:18 39.43598 2.83082 10971 ft 361 kts 94°
2026-05-05 18:18 39.43771 2.86354 11603 ft 370 kts 78°
2026-05-05 18:18 39.44750 2.89452 12260 ft 377 kts 57°
2026-05-05 18:19 39.46473 2.92023 12918 ft 381 kts 43°
2026-05-05 18:19 39.48360 2.94402 13576 ft 386 kts 43°
2026-05-05 18:19 39.50327 2.96872 14177 ft 392 kts 43°
2026-05-05 18:19 39.52293 2.99344 14779 ft 396 kts 42°
2026-05-05 18:20 39.54281 3.01850 15369 ft 400 kts 42°
2026-05-05 18:20 39.56273 3.04369 15968 ft 404 kts 42°
2026-05-05 18:20 39.58270 3.06905 16556 ft 408 kts 43°
2026-05-05 18:20 39.60274 3.09538 17150 ft 412 kts 44°
2026-05-05 18:21 39.62251 3.12246 17727 ft 416 kts 45°
2026-05-05 18:21 39.64227 3.15021 18289 ft 421 kts 45°
2026-05-05 18:21 39.66215 3.17837 18792 ft 424 kts 45°
2026-05-05 18:21 39.68216 3.20665 19298 ft 428 kts 45°
2026-05-05 18:22 39.70247 3.23519 19809 ft 432 kts 45°
2026-05-05 18:22 39.72304 3.26392 20319 ft 435 kts 45°
2026-05-05 18:22 39.74369 3.29267 20847 ft 438 kts 45°
2026-05-05 18:22 39.76463 3.32179 21358 ft 442 kts 45°
2026-05-05 18:23 39.78566 3.35106 21877 ft 445 kts 45°
2026-05-05 18:23 39.80688 3.38065 22395 ft 449 kts 44°
2026-05-05 18:23 39.82819 3.41040 22873 ft 452 kts 44°
2026-05-05 18:23 39.84975 3.44054 23350 ft 456 kts 44°
2026-05-05 18:24 39.87135 3.47079 23776 ft 459 kts 44°
2026-05-05 18:24 39.89317 3.50131 24141 ft 462 kts 45°
2026-05-05 18:24 39.91519 3.53212 24510 ft 465 kts 45°
2026-05-05 18:24 39.93688 3.56246 24861 ft 468 kts 45°
2026-05-05 18:25 39.95927 3.59385 25216 ft 472 kts 45°
2026-05-05 18:25 39.97434 3.61503 25454 ft 474 kts 45°
2026-05-05 18:25 40.00411 3.65695 25903 ft 478 kts 45°
2026-05-05 18:25 40.02705 3.68932 26236 ft 481 kts 45°
2026-05-05 18:26 40.04956 3.72110 26562 ft 484 kts 45°
2026-05-05 18:26 40.07245 3.75347 26884 ft 487 kts 45°
2026-05-05 18:26 40.09547 3.78606 27205 ft 490 kts 45°
2026-05-05 18:26 40.11869 3.81893 27518 ft 493 kts 45°
2026-05-05 18:27 40.14200 3.85196 27829 ft 496 kts 45°
2026-05-05 18:27 40.16548 3.88527 28126 ft 499 kts 45°
2026-05-05 18:27 40.18901 3.91875 28442 ft 502 kts 45°
2026-05-05 18:27 40.21264 3.95252 28739 ft 505 kts 46°
2026-05-05 18:28 40.26026 4.02075 29307 ft 510 kts 46°
2026-05-05 18:28 40.28418 4.05508 29577 ft 513 kts 46°
2026-05-05 18:28 40.30823 4.08971 29846 ft 515 kts 46°
2026-05-05 18:29 40.33248 4.12464 30086 ft 517 kts 46°
2026-05-05 18:29 40.35668 4.15942 30309 ft 520 kts 46°
2026-05-05 18:29 40.38110 4.19454 30539 ft 521 kts 46°
2026-05-05 18:29 40.40556 4.22978 30749 ft 523 kts 46°
2026-05-05 18:30 40.43009 4.26525 30966 ft 525 kts 46°
2026-05-05 18:30 40.45524 4.30012 31198 ft 525 kts 41°
2026-05-05 18:30 40.48333 4.33036 31486 ft 521 kts 31°
2026-05-05 18:30 40.51413 4.35485 31769 ft 516 kts 22°
2026-05-05 18:31 40.54695 4.37336 32049 ft 510 kts 13°
2026-05-05 18:31 40.58083 4.38561 32322 ft 503 kts
2026-05-05 18:31 40.61523 4.39395 32590 ft 502 kts
2026-05-05 18:31 40.64964 4.40224 32860 ft 502 kts
2026-05-05 18:32 40.68398 4.41048 33137 ft 502 kts
2026-05-05 18:32 40.71837 4.41871 33415 ft 502 kts
2026-05-05 18:32 40.75273 4.42694 33689 ft 502 kts
2026-05-05 18:32 40.78672 4.43508 33865 ft 502 kts
2026-05-05 18:33 40.85474 4.45143 33897 ft 494 kts
2026-05-05 18:33 40.92217 4.46770 33898 ft 493 kts
2026-05-05 18:34 40.98964 4.48404 33896 ft 493 kts
2026-05-05 18:34 41.05725 4.50056 33894 ft 494 kts
2026-05-05 18:35 41.12494 4.51707 33898 ft 494 kts
2026-05-05 18:35 41.19249 4.53345 33893 ft 494 kts
2026-05-05 18:36 41.26031 4.54989 33892 ft 495 kts
2026-05-05 18:36 41.32797 4.56650 33892 ft 495 kts
2026-05-05 18:37 41.39578 4.58317 33902 ft 496 kts
2026-05-05 18:37 41.46371 4.59986 33879 ft 496 kts
2026-05-05 18:38 41.53156 4.61654 33882 ft 497 kts
2026-05-05 18:38 41.59962 4.63343 33882 ft 497 kts
2026-05-05 18:39 41.66730 4.65031 33887 ft 498 kts
2026-05-05 18:39 41.73478 4.67324 33888 ft 508 kts 17°
2026-05-05 18:40 41.79763 4.71836 33880 ft 515 kts 28°
2026-05-05 18:40 41.85903 4.76786 33885 ft 516 kts 27°
2026-05-05 18:41 41.92068 4.81741 33890 ft 516 kts 27°
2026-05-05 18:41 41.98236 4.86706 33888 ft 517 kts 27°
2026-05-05 18:42 42.04396 4.91688 33887 ft 517 kts 27°
2026-05-05 18:42 42.10559 4.96687 33896 ft 517 kts 28°
2026-05-05 18:43 42.16717 5.01699 33893 ft 517 kts 28°
2026-05-05 18:43 42.22883 5.06722 33889 ft 518 kts 28°
2026-05-05 18:44 42.29011 5.11734 33889 ft 518 kts 28°
2026-05-05 18:44 42.35171 5.16776 33883 ft 518 kts 28°
2026-05-05 18:45 42.41377 5.21869 33889 ft 518 kts 28°
2026-05-05 18:45 42.47541 5.26941 33889 ft 518 kts 28°
2026-05-05 18:46 42.53673 5.31999 33895 ft 519 kts 28°
2026-05-05 18:46 42.59845 5.37094 33889 ft 520 kts 28°
2026-05-05 18:47 42.66013 5.42206 33884 ft 520 kts 28°
2026-05-05 18:47 42.72196 5.47337 33885 ft 521 kts 28°
2026-05-05 18:48 42.78382 5.52483 33889 ft 522 kts 28°
2026-05-05 18:48 42.84575 5.57642 33896 ft 522 kts 28°
2026-05-05 18:49 42.90779 5.62821 33902 ft 522 kts 29°
2026-05-05 18:49 42.96960 5.68015 33914 ft 522 kts 29°
2026-05-05 18:50 43.03143 5.73212 33927 ft 522 kts 29°
2026-05-05 18:50 43.08285 5.77541 33935 ft 522 kts 29°
2026-05-05 18:52 43.25412 5.92027 33937 ft 520 kts 29°
2026-05-05 18:52 43.30522 5.96370 33934 ft 520 kts 29°
2026-05-05 18:53 43.37591 6.01896 33924 ft 515 kts 18°
2026-05-05 18:53 43.44376 6.04483 33920 ft 500 kts
2026-05-05 18:54 43.51217 6.05219 33916 ft 496 kts 356°
2026-05-05 18:54 43.58109 6.05914 33921 ft 497 kts 357°
2026-05-05 18:55 43.65008 6.06623 33919 ft 497 kts 357°
2026-05-05 18:55 43.71905 6.07328 33925 ft 497 kts 357°
2026-05-05 18:56 43.78751 6.09219 33920 ft 510 kts 15°
2026-05-05 18:56 43.85231 6.13352 33918 ft 514 kts 22°
2026-05-05 18:57 43.91643 6.17736 33918 ft 514 kts 22°
2026-05-05 18:57 43.98068 6.22122 33924 ft 514 kts 22°
2026-05-05 18:58 44.04487 6.26504 33922 ft 514 kts 22°
2026-05-05 18:58 44.10855 6.30874 33928 ft 514 kts 22°
2026-05-05 18:59 44.17224 6.35269 33931 ft 514 kts 22°
2026-05-05 18:59 44.23669 6.39722 33933 ft 514 kts 22°
2026-05-05 19:00 44.30079 6.44146 33926 ft 514 kts 22°
2026-05-05 19:00 44.36487 6.48588 33922 ft 514 kts 23°
2026-05-05 19:01 44.42882 6.53038 33925 ft 514 kts 23°
2026-05-05 19:01 44.49281 6.57501 33934 ft 513 kts 22°
2026-05-05 19:02 44.55661 6.61938 33924 ft 512 kts 22°
2026-05-05 19:02 44.62038 6.66399 33920 ft 511 kts 23°
2026-05-05 19:03 44.68400 6.70875 33937 ft 511 kts 23°
2026-05-05 19:03 44.74756 6.75319 33931 ft 509 kts 20°
2026-05-05 19:04 44.81424 6.78178 33935 ft 496 kts
2026-05-05 19:04 44.88177 6.78478 33934 ft 481 kts 349°
2026-05-05 19:05 44.94817 6.78029 33920 ft 480 kts 349°
2026-05-05 19:05 45.01490 6.77608 33926 ft 481 kts 349°
2026-05-05 19:06 45.08174 6.77189 33939 ft 481 kts 350°
2026-05-05 19:06 45.14846 6.76755 33942 ft 480 kts 350°
2026-05-05 19:07 45.20420 6.76380 33943 ft 478 kts 350°
2026-05-05 19:07 45.28125 6.75862 33950 ft 477 kts 350°
2026-05-05 19:08 45.33629 6.75498 33946 ft 476 kts 350°
2026-05-05 19:08 45.40241 6.75066 33942 ft 475 kts 350°
2026-05-05 19:09 45.46840 6.74627 33942 ft 474 kts 350°
2026-05-05 19:09 45.53403 6.74174 33939 ft 473 kts 351°
2026-05-05 19:10 45.59957 6.73728 33936 ft 471 kts 351°
2026-05-05 19:10 45.66513 6.73278 33946 ft 471 kts 351°
2026-05-05 19:11 45.73049 6.72824 33947 ft 470 kts 351°
2026-05-05 19:11 45.79616 6.72872 33949 ft 478 kts
2026-05-05 19:12 45.86032 6.75568 33940 ft 486 kts 21°
2026-05-05 19:12 45.92146 6.79570 33938 ft 486 kts 21°
2026-05-05 19:13 45.98296 6.83589 33928 ft 485 kts 21°
2026-05-05 19:13 46.04437 6.87600 33923 ft 484 kts 21°
2026-05-05 19:14 46.10571 6.91629 33925 ft 483 kts 22°
2026-05-05 19:14 46.16666 6.95653 33932 ft 482 kts 22°
2026-05-05 19:15 46.22768 6.99679 33939 ft 481 kts 22°
2026-05-05 19:15 46.28859 7.03714 33942 ft 482 kts 22°
2026-05-05 19:16 46.34944 7.07753 33946 ft 481 kts 22°
2026-05-05 19:16 46.41014 7.11793 33909 ft 484 kts 22°
2026-05-05 19:17 46.47136 7.15881 33894 ft 486 kts 22°
2026-05-05 19:17 46.53287 7.20004 33907 ft 488 kts 22°
2026-05-05 19:18 46.59477 7.24152 33904 ft 489 kts 22°
2026-05-05 19:18 46.65650 7.28292 33899 ft 490 kts 22°
2026-05-05 19:19 46.71842 7.32465 33901 ft 490 kts 23°
2026-05-05 19:19 46.78022 7.36657 33885 ft 490 kts 23°
2026-05-05 19:20 46.84086 7.41188 33890 ft 490 kts 35°
2026-05-05 19:20 46.86660 7.44446 33891 ft 490 kts 48°
2026-05-05 19:20 46.88820 7.48280 33881 ft 489 kts 52°
2026-05-05 19:21 46.93042 7.56084 33889 ft 489 kts 52°
2026-05-05 19:21 46.97244 7.63858 33340 ft 482 kts 52°
2026-05-05 19:22 46.99299 7.67660 31899 ft 483 kts 52°
2026-05-05 19:22 47.01386 7.71523 30420 ft 486 kts 52°
2026-05-05 19:22 47.03479 7.75393 29044 ft 483 kts 52°
2026-05-05 19:22 47.05563 7.79248 27814 ft 475 kts 52°
2026-05-05 19:23 47.07601 7.83024 26024 ft 475 kts 53°
2026-05-05 19:23 47.09664 7.86865 23951 ft 484 kts 53°
2026-05-05 19:23 47.11766 7.90782 21657 ft 489 kts 52°
2026-05-05 19:23 47.13752 7.94838 19783 ft 482 kts 59°
2026-05-05 19:24 47.15347 7.98988 18758 ft 454 kts 64°
2026-05-05 19:24 47.16730 8.03128 17218 ft 450 kts 66°
2026-05-05 19:24 47.18001 8.07289 15753 ft 446 kts 67°
2026-05-05 19:24 47.19234 8.11480 15043 ft 443 kts 68°
2026-05-05 19:25 47.20444 8.15561 14870 ft 427 kts 66°
2026-05-05 19:25 47.22030 8.19129 14743 ft 411 kts 44°
2026-05-05 19:25 47.24311 8.21425 14606 ft 390 kts 21°
2026-05-05 19:25 47.26898 8.22362 13414 ft 382 kts 358°
2026-05-05 19:26 47.29478 8.21685 12121 ft 388 kts 335°
2026-05-05 19:26 47.31856 8.19834 11693 ft 375 kts 323°
2026-05-05 19:26 47.33956 8.17709 11562 ft 358 kts 321°
2026-05-05 19:26 47.35964 8.15632 11429 ft 343 kts 322°
2026-05-05 19:27 47.37896 8.13787 11297 ft 331 kts 324°
2026-05-05 19:27 47.39854 8.12102 11184 ft 320 kts 327°
2026-05-05 19:27 47.41782 8.10582 11045 ft 309 kts 328°
2026-05-05 19:27 47.43676 8.09155 10372 ft 307 kts 328°
2026-05-05 19:28 47.45556 8.07763 10014 ft 298 kts 328°
2026-05-05 19:28 47.47410 8.06396 9898 ft 295 kts 328°
2026-05-05 19:28 47.49129 8.04830 9902 ft 286 kts 309°
2026-05-05 19:28 47.50082 8.02380 9909 ft 271 kts 277°
2026-05-05 19:29 47.50167 8.01454 9907 ft 267 kts 266°
2026-05-05 19:29 47.49552 7.97054 9904 ft 264 kts 256°
2026-05-05 19:29 47.49192 7.93820 9904 ft 265 kts 259°
2026-05-05 19:29 47.48944 7.91119 9905 ft 265 kts 259°
2026-05-05 19:30 47.48617 7.88454 9900 ft 262 kts 249°
2026-05-05 19:30 47.48113 7.86841 9901 ft 260 kts 236°
2026-05-05 19:30 47.46884 7.84896 9902 ft 261 kts 216°
2026-05-05 19:30 47.45240 7.83755 9905 ft 265 kts 197°
2026-05-05 19:31 47.43396 7.83577 9902 ft 272 kts 176°
2026-05-05 19:31 47.41592 7.84447 9899 ft 272 kts 155°
2026-05-05 19:31 47.39795 7.86962 9900 ft 275 kts 127°
2026-05-05 19:31 47.39100 7.89622 9904 ft 284 kts 103°
2026-05-05 19:32 47.39046 7.91594 9905 ft 289 kts 86°
2026-05-05 19:32 47.39641 7.94443 9910 ft 294 kts 60°
2026-05-05 19:32 47.41510 7.97260 9905 ft 292 kts 26°
2026-05-05 19:32 47.42777 7.98023 9908 ft 289 kts 11°
2026-05-05 19:33 47.44711 7.98688 9905 ft 288 kts
2026-05-05 19:33 47.46699 7.99256 9906 ft 288 kts
2026-05-05 19:33 47.48654 7.99924 9898 ft 291 kts 20°
2026-05-05 19:33 47.50282 8.01630 9908 ft 295 kts 46°
2026-05-05 19:34 47.51514 8.04036 9901 ft 293 kts 68°
2026-05-05 19:34 47.51896 8.06905 9907 ft 276 kts 95°
2026-05-05 19:34 47.51668 8.09643 9904 ft 263 kts 109°
2026-05-05 19:35 47.49975 8.14191 9911 ft 257 kts 133°
2026-05-05 19:35 47.48881 8.16312 9913 ft 259 kts 133°
2026-05-05 19:35 47.47775 8.18423 9912 ft 260 kts 133°
2026-05-05 19:35 47.46664 8.20529 9912 ft 260 kts 134°
2026-05-05 19:36 47.45549 8.22634 9913 ft 259 kts 133°
2026-05-05 19:36 47.44435 8.24726 9915 ft 259 kts 133°
2026-05-05 19:36 47.43320 8.26809 9914 ft 259 kts 133°
2026-05-05 19:36 47.42200 8.28888 9917 ft 258 kts 134°
2026-05-05 19:37 47.41078 8.30960 9918 ft 258 kts 134°
2026-05-05 19:37 47.39953 8.33028 9915 ft 258 kts 134°
2026-05-05 19:37 47.38829 8.35082 9920 ft 257 kts 133°
2026-05-05 19:37 47.37759 8.37202 9912 ft 260 kts 121°
2026-05-05 19:38 47.37255 8.39800 9923 ft 267 kts 101°
2026-05-05 19:38 47.37043 8.42524 9920 ft 267 kts 99°
2026-05-05 19:38 47.36867 8.45253 9914 ft 267 kts 98°
2026-05-05 19:38 47.36667 8.47960 9870 ft 264 kts 102°
2026-05-05 19:39 47.36443 8.50641 9545 ft 262 kts 99°
2026-05-05 19:39 47.36261 8.53316 9147 ft 262 kts 99°
2026-05-05 19:39 47.36083 8.55999 8792 ft 262 kts 98°
2026-05-05 19:39 47.35901 8.58663 8467 ft 260 kts 98°
2026-05-05 19:40 47.35715 8.61311 8131 ft 260 kts 98°
2026-05-05 19:40 47.35527 8.63924 7781 ft 259 kts 98°
2026-05-05 19:40 47.35331 8.66559 7427 ft 258 kts 98°
2026-05-05 19:40 47.35129 8.69214 7082 ft 257 kts 97°
2026-05-05 19:41 47.35161 8.71815 6752 ft 258 kts 85°
2026-05-05 19:41 47.35364 8.74437 6418 ft 257 kts 84°
2026-05-05 19:41 47.35578 8.77030 6087 ft 256 kts 84°
2026-05-05 19:41 47.35791 8.79640 5977 ft 255 kts 84°
2026-05-05 19:42 47.36009 8.82237 5979 ft 256 kts 81°
2026-05-05 19:42 47.36667 8.84650 5981 ft 254 kts 50°
2026-05-05 19:42 47.38025 8.86237 5982 ft 246 kts 21°
2026-05-05 19:42 47.39573 8.87089 5975 ft 230 kts 14°
2026-05-05 19:43 47.41060 8.87794 5847 ft 220 kts 12°
2026-05-05 19:43 47.42495 8.87878 5748 ft 198 kts 332°
2026-05-05 19:43 47.43421 8.86590 5707 ft 182 kts 285°
2026-05-05 19:43 47.43628 8.84750 5477 ft 182 kts 275°
2026-05-05 19:44 47.43778 8.82906 5215 ft 181 kts 275°
2026-05-05 19:44 47.43928 8.81090 4994 ft 173 kts 275°
2026-05-05 19:44 47.44093 8.79287 4597 ft 172 kts 276°
2026-05-05 19:44 47.44248 8.77654 4380 ft 154 kts 275°
2026-05-05 19:45 47.44349 8.76012 4246 ft 166 kts 272°
2026-05-05 19:45 47.44439 8.74352 3931 ft 155 kts 273°
2026-05-05 19:45 47.44561 8.72749 3763 ft 157 kts 276°
2026-05-05 19:45 47.44675 8.71146 3547 ft 158 kts 272°
2026-05-05 19:46 47.44752 8.69565 3311 ft 144 kts 273°
2026-05-05 19:46 47.44854 8.68131 3024 ft 145 kts 272°
2026-05-05 19:46 47.44955 8.66687 2805 ft 139 kts 274°
2026-05-05 19:46 47.45056 8.65287 2542 ft 139 kts 274°
2026-05-05 19:47 47.45166 8.63831 2355 ft 147 kts 275°
2026-05-05 19:47 47.45263 8.62332 2260 ft 142 kts 275°
2026-05-05 19:47 47.45382 8.60867 2006 ft 142 kts 275°
2026-05-05 19:47 47.45486 8.59429 1794 ft 142 kts 274°
2026-05-05 19:48 47.45588 8.57986 1580 ft 145 kts 274°
2026-05-05 19:48 47.45705 8.56491 1415 ft 138 kts 274°
2026-05-05 19:48 47.45784 8.55274 1396 ft 91 kts 275°
2026-05-05 19:48 47.45824 8.54497 1399 ft 59 kts 261°
2026-05-05 19:49 47.45685 8.54201 1400 ft 25 kts 179°
2026-05-05 19:49 47.45607 8.54303 1397 ft 10 kts 113°
2026-05-05 19:49 47.45603 8.54319 1402 ft 0 kts 110°
2026-05-05 19:50 47.45601 8.54326 1401 ft 5 kts 110°
2026-05-05 19:50 47.45571 8.54445 1395 ft 19 kts 110°
2026-05-05 19:50 47.45526 8.54669 1401 ft 24 kts 107°
2026-05-05 19:51 47.45473 8.54903 1405 ft 25 kts 110°
2026-05-05 19:51 47.45410 8.55140 1406 ft 24 kts 107°
2026-05-05 19:51 47.45382 8.55288 1404 ft 0 kts 111°
2026-05-05 19:52 47.45381 8.55289 1403 ft 1 kts 111°
2026-05-05 19:52 47.45372 8.55330 1405 ft 4 kts 99°
2026-05-05 19:53 47.45412 8.55374 1400 ft 10 kts 27°
2026-05-05 19:53 47.45480 8.55422 1403 ft 12 kts 25°
2026-05-05 19:53 47.45525 8.55513 1397 ft 12 kts 91°
2026-05-05 19:53 47.45513 8.55636 1397 ft 13 kts 96°
2026-05-05 19:54 47.45507 8.55758 1403 ft 11 kts 94°
2026-05-05 19:54 47.45499 8.55878 1397 ft 10 kts 100°
2026-05-05 19:54 47.45496 8.55901 1399 ft 3 kts 100°
2026-05-05 19:54 47.45488 8.55951 1402 ft 5 kts 121°
2026-05-05 19:55 47.45478 8.55952 1399 ft 2 kts 172°
2026-05-05 19:55 47.45439 8.55950 1397 ft 7 kts 185°
2026-05-05 19:55 47.45413 8.55946 1397 ft 2 kts 186°
2026-05-05 19:55 47.45411 8.55945 1397 ft 0 kts 186°